1507489200.93,40885,9.88,72988.0,-3.45,-4.09,-4.09,0,*53
1507489202.13,40886,9.88,72996.0,-3.45,-4.09,-4.13,0,*5B
1507489203.32,40887,9.94,72998.5,-3.45,-4.09,-4.09,0,*51
1507489204.51,40888,9.88,72994.3,-3.45,-4.09,-4.09,0,*5E
1507489205.71,40889,9.88,72996.8,-3.45,-4.13,-4.13,0,*5F
1507489206.9,40890,9.88,73000.5,-3.45,-4.13,-4.09,0,*5C
1507489208.09,40891,9.88,73000.3,-3.45,-4.13,-4.09,0,*5D
1507489209.29,40892,9.88,72996.8,-3.45,-4.13,-4.09,0,*5E
1507489210.48,40893,9.88,72996.8,-3.45,-4.09,-4.09,0,*54
1507489211.67,40894,9.88,73004.3,-3.45,-4.13,-4.09,0,*58
1507489212.89,40895,9.88,73002.0,-3.47,-4.13,-4.09,0,*5B
1507489214.1,40896,9.88,73006.5,-3.47,-4.13,-4.13,0,*53
1507489215.32,40897,9.88,73006.0,-3.47,-4.09,-4.09,0,*52
1507489216.53,40898,9.88,73006.0,-3.47,-4.09,-4.09,0,*5D
1507489217.73,40899,9.88,73008.3,-3.45,-4.05,-4.05,0,*5E
1507489218.92,40900,9.88,73008.0,-3.45,-4.13,-4.13,0,*5F
1507489220.14,40901,9.88,73010.5,-3.45,-4.13,-4.01,0,*5D
1507489221.36,40902,9.88,73014.0,-3.43,-4.05,-4.09,0,*57
1507489222.55,40903,9.88,73012.8,-3.45,-4.09,-4.09,0,*5C
1507489223.74,40904,9.88,73014.0,-3.45,-4.09,-4.09,0,*5B
1507489224.94,40905,9.88,73018.0,-3.45,-4.09,-4.09,0,*5A
1507489226.13,40906,9.88,73018.5,-3.45,-4.09,-4.09,0,*59
1507489227.34,40907,9.88,73018.3,-3.47,-4.13,-4.09,0,*51
1507489228.56,40908,9.88,73018.0,-3.47,-4.13,-4.09,0,*5E
1507489229.78,40909,9.88,73024.3,-3.45,-4.09,-4.01,0,*5E
1507489230.99,40910,9.88,73022.8,-3.47,-4.09,-4.09,0,*5C
1507489232.21,40911,9.88,73020.8,-3.43,-4.05,-4.05,0,*59
1507489233.43,40912,9.88,73022.5,-3.47,-4.09,-4.09,0,*5E
1507489234.64,40913,9.88,73026.3,-3.47,-4.09,-4.09,0,*5F
1507489235.86,40914,9.88,73024.0,-3.47,-4.09,-4.13,0,*53
1507489237.08,40915,9.88,73028.3,-3.47,-4.09,-4.09,0,*59
1507489238.29,40916,9.88,73030.8,-3.47,-4.09,-4.13,0,*51
1507489239.49,40917,9.88,73028.0,-3.45,-4.09,-4.09,0,*59
1507489240.68,40918,9.88,73028.3,-3.45,-4.09,-4.09,0,*56
1507489241.9,40919,9.88,73030.0,-3.45,-4.13,-4.01,0,*54
1507489243.12,40920,9.88,73030.5,-3.43,-4.05,-3.95,0,*55
1507489244.31,40921,9.88,73028.5,-3.45,-4.09,-4.09,0,*5C
1507489245.52,40922,9.88,73028.5,-3.47,-4.09,-4.13,0,*56
1507489246.74,40923,9.88,73028.3,-3.47,-4.13,-3.95,0,*55
1507489247.96,40924,9.88,73026.0,-3.47,-4.13,-4.09,0,*50
1507489249.17,40925,9.88,73024.0,-3.47,-4.13,-4.13,0,*5A
1507489250.37,40926,9.88,73020.8,-3.45,-4.13,-4.09,0,*50
1507489251.56,40927,9.88,73022.0,-3.45,-4.09,-4.09,0,*5A
1507489252.77,40928,9.88,73020.5,-3.47,-4.09,-4.09,0,*57
1507489253.97,40929,9.88,73026.3,-3.45,-4.09,-4.09,0,*54
1507489255.18,40930,9.88,73020.8,-3.43,-4.05,-4.05,0,*5A
1507489256.38,40931,9.88,73020.0,-3.45,-4.09,-4.09,0,*5D
1507489257.57,40932,9.88,73020.3,-3.45,-4.13,-4.13,0,*5E
1507489258.8,40933,9.88,73016.3,-3.45,-4.01,-4.09,0,*57
1507489259.99,40934,9.88,73014.5,-3.45,-4.09,-4.09,0,*58
1507489261.2,40935,9.88,73014.0,-3.47,-4.09,-4.09,0,*5B
1507489262.4,40936,9.88,73008.0,-3.45,-4.13,-4.13,0,*5A
1507489263.62,40937,9.88,73008.8,-3.47,-4.13,-4.13,0,*59
1507489264.81,40938,9.88,73008.5,-3.45,-4.09,-4.09,0,*54
1507489266.0,40939,9.88,73008.3,-3.45,-4.09,-4.13,0,*5E
1507489267.2,40940,9.88,73008.3,-3.45,-4.09,-4.09,0,*5B
1507489268.41,40941,9.88,73004.0,-3.47,-4.09,-4.13,0,*53
1507489269.61,40942,9.88,73004.3,-3.45,-4.09,-4.09,0,*59
1507489270.82,40943,9.88,73004.8,-3.47,-4.09,-4.09,0,*5A
1507489272.02,40944,9.88,73002.3,-3.45,-4.13,-4.13,0,*5F
1507489273.21,40945,9.88,73000.8,-3.45,-4.13,-4.09,0,*55
1507489274.4,40946,9.88,72998.5,-3.45,-4.13,-4.09,0,*56
1507489275.59,40947,9.88,72996.3,-3.45,-4.09,-4.09,0,*5C
1507489276.81,40948,9.88,72992.8,-3.47,-4.09,-4.13,0,*5A
1507489278.03,40949,9.88,72990.3,-3.47,-4.09,-4.13,0,*5B
1507489279.22,40950,9.88,72986.3,-3.45,-4.13,-4.09,0,*51
1507489280.41,40951,9.88,72984.5,-3.45,-4.09,-4.09,0,*5B
1507489281.6,40952,9.88,72986.8,-3.45,-4.09,-4.09,0,*58
1507489282.8,40953,9.88,72982.8,-3.45,-4.09,-4.05,0,*55
1507489283.99,40954,9.88,72986.8,-3.45,-4.09,-4.13,0,*55
1507489285.18,40955,9.88,72982.5,-3.45,-4.17,-4.17,0,*5F
1507489286.37,40956,9.88,72980.3,-3.45,-4.13,-4.09,0,*57
1507489287.56,40957,9.88,72978.5,-3.45,-4.09,-4.09,0,*5D
1507489288.78,40958,9.88,72976.0,-3.47,-4.13,-4.09,0,*5B
1507489290.0,40959,9.88,72974.8,-3.47,-4.09,-4.09,0,*51
1507489291.21,40960,9.88,72978.5,-3.47,-4.13,-4.09,0,*50
1507489292.43,40961,9.88,72982.0,-3.47,-4.09,-4.13,0,*51
1507489293.64,40962,9.88,72986.3,-3.47,-4.13,-4.09,0,*52
1507489294.86,40963,9.88,72990.5,-3.47,-4.13,-4.13,0,*58
1507489296.08,40964,9.88,72988.3,-3.47,-4.13,-4.13,0,*5F
1507489297.3,40965,9.88,72994.8,-3.47,-4.09,-4.09,0,*5E
1507489298.51,40966,9.88,72996.5,-3.47,-4.09,-4.09,0,*5D
1507489299.7,40967,9.88,73000.0,-3.45,-4.13,-4.09,0,*55
1507489300.9,40968,9.88,72998.8,-3.45,-4.13,-4.09,0,*5A
1507489302.09,40969,9.88,72998.5,-3.45,-4.09,-4.09,0,*50
1507489303.3,40970,9.88,73002.0,-3.47,-4.09,-4.09,0,*5A
1507489304.52,40971,9.88,73002.3,-3.47,-4.13,-4.09,0,*50
1507489305.73,40972,9.88,73004.3,-3.47,-4.13,-4.09,0,*53
1507489306.93,40973,9.88,73006.8,-3.45,-4.09,-4.13,0,*50
1507489308.15,40974,9.88,73000.3,-3.47,-4.13,-4.09,0,*55
1507489309.34,40975,9.88,73002.8,-3.45,-4.09,-4.13,0,*56
1507489310.56,40976,9.88,73004.0,-3.45,-4.09,-4.01,0,*56
1507489311.75,40977,9.88,72996.3,-3.45,-4.09,-4.09,0,*5F
1507489312.97,40978,9.88,72994.5,-3.47,-4.13,-4.13,0,*52
1507489314.19,40979,9.88,72988.5,-3.47,-4.13,-4.13,0,*53
1507489315.38,40980,9.88,72972.8,-3.45,-4.09,-4.13,0,*5C
1507489316.6,40981,9.88,72988.8,-3.47,-4.13,-4.09,0,*5F
1507489317.79,40982,9.88,72992.8,-3.45,-4.13,-4.13,0,*55
1507489319.01,40983,9.88,72996.8,-3.47,-4.13,-4.09,0,*5D
1507489320.22,40984,9.88,73012.8,-3.47,-4.13,-4.09,0,*5A
1507489321.44,40985,9.88,73016.0,-3.47,-4.13,-4.09,0,*5B
1507489322.63,40986,9.88,73010.3,-3.45,-4.09,-4.09,0,*51
1507489323.85,40987,9.88,73008.8,-3.47,-4.13,-4.09,0,*59
1507489325.06,40988,9.88,73008.5,-3.47,-4.13,-4.09,0,*56
1507489326.28,40989,9.88,73014.0,-3.47,-4.13,-4.13,0,*5C
1507489327.5,40990,9.88,73014.0,-3.47,-4.09,-4.09,0,*54
1507489328.69,40991,9.88,73008.8,-3.45,-4.13,-4.09,0,*5C
1507489329.88,40992,9.88,73006.0,-3.45,-4.13,-4.09,0,*5F
1507489331.1,40993,9.88,73006.0,-3.47,-4.09,-4.09,0,*57
1507489332.31,40994,9.88,72996.0,-3.47,-4.13,-4.13,0,*50
1507489333.53,40995,9.88,72996.8,-3.47,-4.13,-4.13,0,*51
1507489334.73,40996,9.88,73008.5,-3.49,-4.17,-4.13,0,*58
1507489335.95,40997,9.88,73010.3,-3.47,-4.09,-4.13,0,*58
1507489337.16,40998,9.88,73012.3,-3.47,-4.09,-4.09,0,*5C
1507489338.36,40999,9.88,73010.3,-3.45,-4.09,-4.09,0,*5F
1507489339.58,41000,9.88,73018.3,-3.47,-4.09,-4.13,0,*5E
1507489340.8,41001,9.88,73020.5,-3.47,-4.21,-4.13,0,*55
1507489342.01,41002,9.88,73022.3,-3.47,-4.09,-4.09,0,*57
1507489343.21,41003,9.88,73022.8,-3.49,-4.17,-4.13,0,*5C
1507489344.41,41004,9.88,73016.8,-3.49,-4.17,-4.13,0,*5B
1507489345.63,41005,9.88,73020.5,-3.47,-4.13,-4.09,0,*5B
1507489346.84,41006,9.88,73016.8,-3.47,-4.13,-4.09,0,*58
1507489348.06,41007,9.88,73014.3,-3.47,-4.09,-4.13,0,*59
1507489349.28,41008,9.88,73012.5,-3.47,-4.09,-4.13,0,*56
1507489350.5,41009,9.88,73014.0,-3.47,-4.13,-4.09,0,*57
1507489351.71,41010,9.88,73012.8,-3.47,-4.09,-4.13,0,*5F
1507489352.93,41011,9.88,73012.0,-3.47,-4.13,-4.09,0,*5E
1507489354.14,41012,9.88,73008.8,-3.47,-4.13,-4.09,0,*5D
1507489355.36,41013,9.88,73006.8,-3.47,-4.09,-4.13,0,*5C
1507489356.56,41014,9.88,73004.8,-3.49,-4.17,-4.13,0,*5A
1507489357.76,41015,9.88,73006.0,-3.49,-4.17,-4.13,0,*5B
1507489358.98,41016,9.88,73006.0,-3.47,-4.09,-4.13,0,*59
1507489360.2,41017,9.88,73000.8,-3.47,-4.13,-4.13,0,*53
1507489361.39,41018,9.88,72992.8,-3.49,-4.13,-4.09,0,*59
1507489362.61,41019,9.88,72994.8,-3.47,-4.13,-4.09,0,*56
1507489363.83,41020,9.88,72992.5,-3.47,-4.13,-4.13,0,*57
1507489365.04,41021,9.88,72988.5,-3.47,-4.13,-4.13,0,*56
1507489366.26,41022,9.88,72990.0,-3.47,-4.13,-4.09,0,*5E
1507489367.46,41023,9.88,72980.3,-3.49,-4.25,-4.17,0,*5B
1507489368.67,41024,9.88,72978.3,-3.47,-4.13,-4.13,0,*53
1507489369.87,41025,9.88,72976.5,-3.49,-4.25,-4.17,0,*5D
1507489371.09,41026,9.88,72978.3,-3.47,-4.13,-4.09,0,*5A
1507489372.3,41027,9.88,72978.8,-3.47,-4.13,-4.09,0,*5B
1507489373.49,41028,9.88,72978.8,-3.49,-4.17,-4.17,0,*51
1507489374.71,41029,9.88,72980.0,-3.47,-4.09,-4.09,0,*5E
1507489375.9,41030,9.88,72984.5,-3.49,-4.17,-4.17,0,*58
1507489377.12,41031,9.88,72982.0,-3.47,-4.13,-4.13,0,*57
1507489378.31,41032,9.88,72988.5,-3.49,-4.17,-4.17,0,*5A
1507489379.51,41033,9.88,72988.3,-3.49,-4.17,-4.17,0,*5B
1507489380.72,41034,9.88,72996.3,-3.47,-4.13,-4.13,0,*52
1507489381.94,41035,9.88,72998.8,-3.47,-4.13,-4.13,0,*53
1507489383.16,41036,9.88,72996.5,-3.47,-4.09,-4.09,0,*50
1507489384.38,41037,9.88,72998.3,-3.47,-4.13,-4.13,0,*51
1507489385.59,41038,9.88,73000.3,-3.47,-4.13,-4.13,0,*5E
1507489386.79,41039,9.88,73000.8,-3.49,-4.13,-4.13,0,*51
1507489388.01,41040,9.88,73002.0,-3.47,-4.13,-4.09,0,*5A
1507489389.2,41041,9.88,73006.0,-3.49,-4.13,-4.17,0,*5A
1507489390.42,41042,9.88,73006.3,-3.47,-4.13,-4.09,0,*58
1507489391.64,41043,9.88,73006.3,-3.47,-4.09,-4.13,0,*59
1507489392.85,41044,9.88,73010.5,-3.47,-4.13,-4.13,0,*55
1507489394.05,41045,9.88,73002.5,-3.49,-4.13,-4.13,0,*5A
1507489395.27,41046,9.88,73006.0,-3.47,-4.13,-4.13,0,*57
1507489396.47,41047,9.88,73006.5,-3.49,-4.09,-4.09,0,*58
1507489397.66,41048,9.88,73004.3,-3.49,-4.17,-4.09,0,*58
1507489398.88,41049,9.88,73006.3,-3.47,-4.13,-4.09,0,*53
1507489400.09,41050,9.88,73008.0,-3.47,-4.09,-4.09,0,*50
1507489401.29,41051,9.88,73008.0,-3.49,-4.13,-4.17,0,*5B
1507489402.48,41052,9.88,73010.5,-3.49,-4.13,-4.17,0,*58
1507489403.68,41053,9.88,73010.5,-3.49,-4.13,-4.13,0,*5D
1507489404.88,41054,9.88,73014.8,-3.49,-4.13,-4.13,0,*5A
1507489406.09,41055,9.88,73012.8,-3.47,-4.13,-4.09,0,*5E
1507489407.31,41056,9.88,73014.8,-3.47,-4.09,-4.09,0,*56
1507489408.5,41057,9.88,73014.0,-3.49,-4.13,-4.17,0,*5D
1507489409.72,41058,9.88,73012.3,-3.47,-4.13,-4.09,0,*53
1507489410.92,41059,9.88,73012.3,-3.49,-4.13,-4.13,0,*57
1507489412.13,41060,9.88,73014.8,-3.47,-4.09,-4.13,0,*58
1507489413.35,41061,9.88,73012.5,-3.47,-4.09,-4.09,0,*52
1507489414.55,41062,9.88,73012.8,-3.49,-4.13,-4.13,0,*5F
1507489415.76,41063,9.88,73008.3,-3.47,-4.13,-4.09,0,*5B
1507489416.99,41064,9.88,73010.3,-3.49,-4.09,-4.01,0,*51
1507489418.23,41065,9.88,73014.0,-3.47,-4.13,-4.01,0,*55
1507489419.44,41066,9.88,73010.8,-3.47,-4.09,-4.13,0,*5E
1507489420.66,41067,9.88,73012.3,-3.47,-4.09,-4.09,0,*54
1507489421.88,41068,9.88,73012.8,-3.47,-4.09,-4.09,0,*5B
1507489423.07,41069,9.88,73012.8,-3.49,-4.17,-4.09,0,*5B
1507489424.27,41070,9.88,73016.3,-3.49,-4.17,-4.13,0,*58
1507489425.49,41071,9.88,73016.8,-3.47,-4.09,-4.09,0,*53
1507489426.7,41072,9.88,73016.5,-3.47,-4.09,-4.13,0,*5B
1507489427.92,41073,9.88,73012.8,-3.47,-4.09,-4.09,0,*51
1507489429.13,41074,9.88,73014.0,-3.47,-4.09,-4.09,0,*56
1507489430.35,41075,9.88,73018.8,-3.47,-4.13,-4.09,0,*5C
1507489431.55,41076,9.88,73022.0,-3.49,-4.13,-4.13,0,*5A
1507489432.76,41077,9.88,73020.5,-3.47,-4.09,-4.09,0,*55
1507489433.98,41078,9.88,73012.0,-3.47,-4.13,-4.09,0,*51
1507489435.2,41079,9.88,73012.3,-3.47,-4.13,-4.09,0,*50
1507489436.41,41080,9.88,73012.0,-3.47,-4.09,-4.09,0,*5D
1507489437.63,41081,9.88,73010.0,-3.47,-4.09,-4.09,0,*5C
1507489438.87,41082,9.88,73012.5,-3.47,-4.13,-4.01,0,*5C
1507489440.08,41083,9.88,73012.3,-3.47,-4.13,-4.09,0,*55
1507489441.32,41084,9.88,73012.0,-3.47,-4.13,-4.01,0,*5A
1507489442.57,41085,9.88,73008.8,-3.47,-4.13,-4.01,0,*5B
1507489443.76,41086,9.88,73006.5,-3.49,-4.13,-4.17,0,*51
1507489445.0,41087,9.88,73004.3,-3.47,-4.13,-4.01,0,*59
1507489446.22,41088,9.88,73012.8,-3.47,-4.09,-4.09,0,*55
1507489447.46,41089,9.88,73016.3,-3.47,-4.09,-4.01,0,*5C
1507489448.7,41090,9.88,73016.5,-3.47,-4.13,-4.01,0,*5F
1507489449.91,41091,9.88,73018.5,-3.47,-4.13,-4.09,0,*56
1507489451.13,41092,9.88,73016.8,-3.47,-4.13,-4.09,0,*55
1507489452.34,41093,9.88,73018.3,-3.47,-4.09,-4.09,0,*5F
1507489453.54,41094,9.88,73018.3,-3.49,-4.13,-4.17,0,*52
1507489454.75,41095,9.88,73020.3,-3.47,-4.13,-4.09,0,*52
1507489455.99,41096,9.88,73020.3,-3.47,-4.09,-4.01,0,*52
1507489457.19,41097,9.88,73022.8,-3.49,-4.17,-4.13,0,*51
1507489458.39,41098,9.88,73018.5,-3.49,-4.13,-4.17,0,*5E
1507489459.6,41099,9.88,73012.8,-3.47,-4.09,-4.09,0,*55
1507489460.82,41100,9.88,73014.5,-3.47,-4.13,-4.09,0,*5F
1507489462.03,41101,9.88,73016.8,-3.47,-4.09,-4.13,0,*5E
1507489463.23,41102,9.88,73014.5,-3.49,-4.13,-4.13,0,*58
1507489464.45,41103,9.88,73016.0,-3.47,-4.09,-4.09,0,*57
1507489465.67,41104,9.88,73008.5,-3.47,-4.13,-4.09,0,*5B
1507489466.88,41105,9.88,73006.0,-3.47,-4.09,-4.13,0,*5A
1507489468.12,41106,9.88,73002.3,-3.47,-4.13,-4.01,0,*51
1507489469.34,41107,9.88,72988.3,-3.47,-4.13,-4.09,0,*58
1507489470.56,41108,9.88,72988.5,-3.47,-4.09,-4.09,0,*5C
1507489471.75,41109,9.88,72994.8,-3.49,-4.13,-4.13,0,*53
1507489472.97,41110,9.88,72994.3,-3.47,-4.09,-4.13,0,*5E
1507489474.17,41111,9.88,72990.0,-3.49,-4.17,-4.09,0,*55
1507489475.36,41112,9.88,72984.8,-3.49,-4.13,-4.09,0,*52
1507489476.56,41113,9.88,72984.5,-3.49,-4.13,-4.13,0,*58
1507489477.78,41114,9.88,72984.3,-3.47,-4.09,-4.09,0,*51
1507489478.99,41115,9.88,72980.3,-3.47,-4.13,-4.09,0,*5B
1507489480.21,41116,9.88,72980.5,-3.47,-4.09,-4.09,0,*53
1507489481.4,41117,9.88,72974.0,-3.49,-4.17,-4.17,0,*5C
1507489482.6,41118,9.88,72974.0,-3.49,-4.17,-4.13,0,*57
1507489483.8,41119,9.88,72976.3,-3.49,-4.13,-4.13,0,*52
1507489485.01,41120,9.88,72972.8,-3.47,-4.09,-4.09,0,*56
1507489486.23,41121,9.88,72974.0,-3.47,-4.13,-4.13,0,*57
1507489487.45,41122,9.88,72974.5,-3.47,-4.09,-4.13,0,*5F
1507489488.65,41123,9.88,72964.3,-3.49,-4.17,-4.13,0,*5F
1507489489.87,41124,9.88,72964.8,-3.47,-4.09,-4.13,0,*59
1507489491.08,41125,9.88,72964.3,-3.47,-4.13,-4.09,0,*58
1507489492.28,41126,9.88,72968.5,-3.49,-4.17,-4.13,0,*5A
1507489493.5,41127,9.88,72972.8,-3.47,-4.09,-4.09,0,*51
1507489494.7,41128,9.88,72976.3,-3.49,-4.13,-4.13,0,*50
1507489495.89,41129,9.88,72980.3,-3.49,-4.13,-4.13,0,*51
1507489497.09,41130,9.88,72984.8,-3.49,-4.17,-4.17,0,*59
1507489498.28,41131,9.88,72988.3,-3.49,-4.17,-4.17,0,*58
1507489499.5,41132,9.88,72988.0,-3.47,-4.13,-4.09,0,*5E
1507489500.69,41133,9.88,72990.0,-3.49,-4.17,-4.13,0,*5E
1507489501.91,41134,9.88,72992.0,-3.47,-4.13,-4.09,0,*58
1507489503.1,41135,9.88,72996.5,-3.49,-4.17,-4.17,0,*5C
1507489504.29,41136,9.88,72996.0,-3.49,-4.13,-4.17,0,*5B
1507489505.49,41137,9.88,72998.3,-3.49,-4.09,-4.09,0,*5E
1507489506.71,41138,9.88,72998.5,-3.47,-4.13,-4.13,0,*5F
1507489507.92,41139,9.88,73000.8,-3.47,-4.13,-4.09,0,*55
1507489509.14,41140,9.88,73002.3,-3.47,-4.13,-4.13,0,*50
1507489510.34,41141,9.88,73000.8,-3.49,-4.17,-4.13,0,*5B
1507489511.56,41142,9.88,72996.8,-3.47,-4.13,-4.09,0,*59
1507489512.78,41143,9.88,72996.3,-3.47,-4.09,-4.13,0,*58
1507489513.97,41144,9.88,72998.5,-3.49,-4.17,-4.13,0,*5E
1507489515.19,41145,9.88,72990.3,-3.47,-4.09,-4.13,0,*5E
1507489516.39,41146,9.88,72988.3,-3.49,-4.13,-4.13,0,*58
1507489517.61,41147,9.88,72986.8,-3.47,-4.09,-4.09,0,*57
1507489518.8,41148,9.88,72994.8,-3.49,-4.17,-4.13,0,*52
1507489520.02,41149,9.88,72996.3,-3.47,-4.13,-4.13,0,*59
1507489521.24,41150,9.88,72996.5,-3.47,-4.13,-4.13,0,*51
1507489522.44,41151,9.88,73002.5,-3.49,-4.13,-4.09,0,*55
1507489523.65,41152,9.88,73006.8,-3.47,-4.13,-4.09,0,*58
1507489524.85,41153,9.88,73008.0,-3.49,-4.13,-4.17,0,*58
1507489526.05,41154,9.88,73014.3,-3.49,-4.13,-4.13,0,*5B
1507489527.24,41155,9.88,73010.0,-3.49,-4.17,-4.13,0,*5E
1507489528.44,41156,9.88,73002.8,-3.49,-4.17,-4.17,0,*59
1507489529.65,41157,9.88,73000.8,-3.47,-4.13,-4.13,0,*56
1507489530.85,41158,9.88,73008.5,-3.49,-4.17,-4.17,0,*57
1507489532.04,41159,9.88,73008.0,-3.49,-4.13,-4.17,0,*52
1507489533.25,41160,9.88,73010.8,-3.47,-4.13,-4.09,0,*59
1507489534.45,41161,9.88,73008.3,-3.49,-4.17,-4.17,0,*5D
1507489535.64,41162,9.88,73014.5,-3.49,-4.09,-4.09,0,*5E
1507489536.86,41163,9.88,73012.0,-3.47,-4.13,-4.13,0,*51
1507489538.1,41164,9.88,73010.5,-3.47,-4.09,-4.01,0,*5E
1507489539.32,41165,9.88,73000.0,-3.47,-4.13,-4.09,0,*5C
1507489540.53,41166,9.88,72998.5,-3.47,-4.13,-4.09,0,*5F
1507489541.75,41167,9.88,73000.5,-3.47,-4.17,-4.13,0,*51
1507489542.95,41168,9.88,72998.3,-3.49,-4.17,-4.13,0,*50
1507489544.15,41169,9.88,72988.8,-3.49,-4.13,-4.13,0,*55
1507489545.35,41170,9.88,72980.5,-3.49,-4.13,-4.13,0,*5D
1507489546.56,41171,9.88,72976.3,-3.47,-4.09,-4.09,0,*52
1507489547.78,41172,9.88,72980.5,-3.47,-4.13,-4.09,0,*5A
1507489549.0,41173,9.88,72994.3,-3.47,-4.13,-4.13,0,*50
1507489550.21,41174,9.88,73002.0,-3.47,-4.09,-4.09,0,*57
1507489551.41,41175,9.88,73002.8,-3.49,-4.09,-4.13,0,*53
1507489552.61,41176,9.88,73002.3,-3.49,-4.17,-4.13,0,*5F
1507489553.81,41177,9.88,72996.8,-3.49,-4.17,-4.13,0,*5E
1507489555.03,41178,9.88,73000.8,-3.47,-4.09,-4.13,0,*50
1507489556.24,41179,9.88,73010.3,-3.47,-4.13,-4.09,0,*51
1507489557.46,41180,9.88,73008.8,-3.47,-4.13,-4.09,0,*57
1507489558.67,41181,9.88,73012.3,-3.47,-4.13,-4.09,0,*56
1507489559.87,41182,9.88,73016.5,-3.49,-4.13,-4.09,0,*5B
1507489561.08,41183,9.88,73014.0,-3.47,-4.09,-4.09,0,*5F
1507489562.28,41184,9.88,73016.3,-3.49,-4.17,-4.17,0,*56
1507489563.47,41185,9.88,73022.5,-3.49,-4.17,-4.17,0,*57
1507489564.67,41186,9.88,73018.3,-3.49,-4.17,-4.13,0,*50
1507489565.89,41187,9.88,73016.3,-3.47,-4.09,-4.13,0,*50
1507489567.08,41188,9.88,73022.5,-3.49,-4.13,-4.17,0,*5E
1507489568.28,41189,9.88,73022.5,-3.49,-4.17,-4.13,0,*5F
1507489569.49,41190,9.88,73020.8,-3.47,-4.09,-4.09,0,*5D
1507489570.69,41191,9.88,73026.5,-3.49,-4.17,-4.17,0,*52
1507489571.9,41192,9.88,73026.0,-3.47,-4.13,-4.09,0,*54
1507489573.12,41193,9.88,73024.8,-3.47,-4.13,-4.09,0,*55
1507489574.33,41194,9.88,73026.5,-3.47,-4.09,-4.09,0,*59
1507489575.55,41195,9.88,73028.8,-3.47,-4.09,-4.09,0,*58
1507489576.75,41196,9.88,73028.5,-3.49,-4.13,-4.13,0,*55
1507489577.95,41197,9.88,73032.5,-3.49,-4.13,-4.13,0,*54
1507489579.15,41198,9.88,73028.8,-3.49,-4.17,-4.13,0,*5F
1507489580.34,41199,9.88,73032.5,-3.49,-4.17,-4.13,0,*5E
1507489581.54,41200,9.88,73030.0,-3.49,-4.17,-4.17,0,*59
1507489582.75,41201,9.88,73034.0,-3.47,-4.13,-4.17,0,*52
1507489583.94,41202,9.88,73030.5,-3.49,-4.13,-4.17,0,*5F
1507489585.16,41203,9.88,73026.8,-3.47,-4.13,-4.13,0,*54
1507489586.38,41204,9.88,73026.5,-3.47,-4.09,-4.13,0,*58
1507489587.58,41205,9.88,73026.8,-3.49,-4.13,-4.13,0,*5C
1507489588.78,41206,9.88,73028.0,-3.49,-4.13,-4.13,0,*5F
1507489589.97,41207,9.88,73020.8,-3.49,-4.17,-4.13,0,*5A
1507489591.17,41208,9.88,73020.5,-3.49,-4.13,-4.13,0,*51
1507489592.39,41209,9.88,73018.0,-3.47,-4.13,-4.13,0,*5E
1507489593.59,41210,9.88,73012.8,-3.49,-4.13,-4.09,0,*53
1507489594.78,41211,9.88,73006.5,-3.49,-4.17,-4.17,0,*59
1507489595.98,41212,9.88,73000.3,-3.49,-4.13,-4.13,0,*5A
1507489597.17,41213,9.88,72990.8,-3.49,-4.17,-4.17,0,*5B
1507489598.37,41214,9.88,72984.8,-3.49,-4.17,-4.13,0,*58
1507489599.57,41215,9.88,72980.0,-3.49,-4.13,-4.13,0,*5D
1507489600.77,41216,9.88,72976.0,-3.49,-4.13,-4.13,0,*5E
1507489601.97,41217,9.88,72976.3,-3.49,-4.13,-4.13,0,*5F
1507489603.17,41218,9.88,72974.8,-3.49,-4.17,-4.13,0,*54
1507489604.38,41219,9.88,72978.0,-3.47,-4.09,-4.09,0,*5F
1507489605.58,41220,9.88,72978.3,-3.49,-4.17,-4.13,0,*5F
1507489606.78,41221,9.88,72980.5,-3.49,-4.17,-4.13,0,*5E
1507489608.0,41222,9.88,72986.3,-3.47,-4.09,-4.13,0,*5C
1507489609.21,41223,9.88,72984.8,-3.47,-4.13,-4.13,0,*56
1507489610.41,41224,9.88,72996.3,-3.49,-4.13,-4.13,0,*5F
1507489611.61,41225,9.88,72988.3,-3.49,-4.17,-4.13,0,*5A
1507489612.83,41226,9.88,72990.8,-3.47,-4.13,-4.09,0,*58
1507489614.04,41227,9.88,72984.5,-3.47,-4.13,-4.09,0,*59
1507489615.24,41228,9.88,72974.0,-3.49,-4.17,-4.13,0,*57
1507489616.43,41229,9.88,72974.3,-3.49,-4.17,-4.17,0,*52
1507489617.63,41230,9.88,72972.0,-3.49,-4.17,-4.13,0,*5E
1507489618.83,41231,9.88,72968.3,-3.49,-4.13,-4.13,0,*5B
1507489620.03,41232,9.88,72962.0,-3.49,-4.09,-4.09,0,*58
1507489621.23,41233,9.88,72962.8,-3.49,-4.13,-4.13,0,*59
1507489622.42,41234,9.88,72962.5,-3.49,-4.13,-4.17,0,*5A
1507489623.61,41235,9.88,72962.0,-3.49,-4.13,-4.17,0,*5B
1507489624.8,41236,9.88,72968.5,-3.49,-4.17,-4.17,0,*5C
1507489626.0,41237,9.88,72970.0,-3.49,-4.17,-4.13,0,*59
1507489627.22,41238,9.88,72974.5,-3.47,-4.13,-4.09,0,*57
1507489628.44,41239,9.88,72972.5,-3.47,-4.09,-4.13,0,*56
1507489629.63,41240,9.88,72976.8,-3.49,-4.17,-4.17,0,*5D
1507489630.83,41241,9.88,72978.8,-3.49,-4.25,-4.13,0,*59
1507489632.02,41242,9.88,72978.5,-3.49,-4.17,-4.17,0,*5F
1507489633.22,41243,9.88,72982.0,-3.49,-4.17,-4.13,0,*5A
1507489634.42,41244,9.88,72986.8,-3.49,-4.17,-4.17,0,*59
1507489635.61,41245,9.88,72988.8,-3.49,-4.17,-4.13,0,*5C
1507489636.81,41246,9.88,72990.3,-3.49,-4.17,-4.25,0,*5A
1507489638.0,41247,9.88,72990.8,-3.49,-4.17,-4.17,0,*5A
1507489639.2,41248,9.88,72998.0,-3.49,-4.17,-4.17,0,*55
1507489640.39,41249,9.88,73002.0,-3.49,-4.17,-4.17,0,*54
1507489641.59,41250,9.88,73002.0,-3.49,-4.17,-4.13,0,*58
1507489642.79,41251,9.88,73002.8,-3.49,-4.17,-4.13,0,*59
1507489643.98,41252,9.88,73006.5,-3.49,-4.13,-4.17,0,*5A
1507489645.17,41253,9.88,73004.8,-3.49,-4.17,-4.17,0,*5F
1507489646.36,41254,9.88,73010.3,-3.49,-4.13,-4.17,0,*5C
1507489647.56,41255,9.88,73014.5,-3.49,-4.17,-4.13,0,*5D
1507489648.76,41256,9.88,73012.3,-3.49,-4.17,-4.17,0,*5A
1507489649.95,41257,9.88,73008.0,-3.49,-4.13,-4.13,0,*5B
1507489651.15,41258,9.88,73010.8,-3.49,-4.13,-4.17,0,*50
1507489652.35,41259,9.88,73012.3,-3.49,-4.17,-4.13,0,*51
1507489653.54,41260,9.88,73014.5,-3.49,-4.17,-4.17,0,*5F
1507489654.73,41261,9.88,73014.0,-3.49,-4.13,-4.17,0,*5A
1507489655.96,41262,9.88,73016.5,-3.51,-4.13,-4.13,0,*54
1507489657.18,41263,9.88,73014.3,-3.51,-4.17,-4.13,0,*51
1507489658.41,41264,9.88,73022.0,-3.51,-4.17,-4.13,0,*56
1507489659.6,41265,9.88,73016.3,-3.49,-4.17,-4.13,0,*5E
1507489660.8,41266,9.88,73018.0,-3.49,-4.13,-4.13,0,*59
1507489662.0,41267,9.88,73022.5,-3.49,-4.17,-4.13,0,*5C
1507489663.19,41268,9.88,73024.3,-3.49,-4.17,-4.17,0,*57
1507489664.39,41269,9.88,73026.0,-3.49,-4.13,-4.17,0,*52
1507489665.58,41270,9.88,73024.0,-3.49,-4.17,-4.17,0,*5E
1507489666.78,41271,9.88,73020.3,-3.49,-4.17,-4.13,0,*5B
1507489667.99,41272,9.88,73026.8,-3.47,-4.17,-4.13,0,*56
1507489669.21,41273,9.88,73024.5,-3.47,-4.13,-4.09,0,*58
1507489670.41,41274,9.88,73026.8,-3.49,-4.17,-4.13,0,*5E
1507489671.63,41275,9.88,73026.8,-3.51,-4.13,-4.17,0,*56
1507489672.85,41276,9.88,73026.0,-3.51,-4.17,-4.13,0,*55
1507489674.05,41277,9.88,73030.8,-3.49,-4.17,-4.13,0,*5D
1507489675.24,41278,9.88,73028.5,-3.49,-4.13,-4.17,0,*52
1507489676.44,41279,9.88,73024.5,-3.49,-4.13,-4.13,0,*57
1507489677.66,41280,9.88,73030.8,-3.51,-4.17,-4.17,0,*58
1507489678.88,41281,9.88,73028.0,-3.51,-4.17,-4.05,0,*5A
1507489680.1,41282,9.88,73020.3,-3.51,-4.17,-4.05,0,*59
1507489681.32,41283,9.88,73020.8,-3.51,-4.13,-4.17,0,*5F
1507489682.52,41284,9.88,73022.0,-3.49,-4.17,-4.13,0,*51
1507489683.71,41285,9.88,73020.8,-3.49,-4.17,-4.17,0,*54
1507489684.91,41286,9.88,73018.0,-3.49,-4.13,-4.13,0,*57
1507489686.11,41287,9.88,73012.0,-3.49,-4.13,-4.13,0,*56
1507489687.33,41288,9.88,73012.0,-3.51,-4.17,-4.17,0,*50
1507489688.55,41289,9.88,73012.0,-3.51,-4.13,-4.17,0,*55
1507489689.77,41290,9.88,73008.3,-3.51,-4.17,-4.13,0,*5D
1507489690.97,41291,9.88,73008.5,-3.49,-4.17,-4.13,0,*55
1507489692.2,41292,9.88,73006.3,-3.51,-4.13,-4.13,0,*5B
1507489693.39,41293,9.88,73008.0,-3.49,-4.17,-4.17,0,*53
1507489694.59,41294,9.88,73004.8,-3.49,-4.17,-4.13,0,*50
1507489695.79,41295,9.88,73006.3,-3.49,-4.17,-4.13,0,*51
1507489697.0,41296,9.88,73004.8,-3.47,-4.09,-4.09,0,*58
1507489698.2,41297,9.88,73004.8,-3.49,-4.17,-4.13,0,*53
1507489699.4,41298,9.88,73010.5,-3.49,-4.13,-4.13,0,*58
1507489700.6,41299,9.88,73006.5,-3.49,-4.13,-4.13,0,*59
1507489701.79,41300,9.88,73008.3,-3.49,-4.17,-4.17,0,*58
1507489702.99,41301,9.88,73006.0,-3.49,-4.17,-4.13,0,*5D
1507489704.21,41302,9.88,73004.3,-3.51,-4.17,-4.13,0,*57
1507489705.43,41303,9.88,73006.8,-3.51,-4.17,-4.17,0,*52
1507489706.65,41304,9.88,73004.8,-3.51,-4.17,-4.13,0,*51
1507489707.88,41305,9.88,73008.5,-3.51,-4.17,-4.13,0,*50
1507489709.1,41306,9.88,73006.8,-3.51,-4.13,-4.13,0,*57